| time (UTC) | temp F | wind direction | speed MPH | gust MPH | rain 1hr in | rain 24hr in | rain mn in | humidity % | barometer mb |
| 20260506062504 | 49 | 178 | 0.0 | 0.0 | 0.00 | 0.00 | 0.00 | 88 | 1005.3 |
| 20260506061003 | 48 | 178 | 0.0 | 0.0 | 0.00 | 0.00 | 0.00 | 87 | 1005.2 |
| 20260506051008 | 47 | 178 | 0.0 | 0.0 | 0.00 | 0.00 | 0.00 | 85 | 1005.6 |
| 20260506044007 | 48 | 178 | 0.0 | 0.0 | 0.00 | 0.00 | 0.00 | 85 | 1005.6 |
| 20260506042507 | 48 | 178 | 0.0 | 0.0 | 0.00 | 0.00 | 0.00 | 83 | 1005.6 |
| 20260506041006 | 48 | 178 | 0.0 | 0.0 | 0.00 | 0.00 | 0.00 | 83 | 1005.5 |
| 20260506035506 | 48 | 178 | 0.0 | 0.0 | 0.00 | 0.00 | 0.00 | 84 | 1005.6 |
| 20260506034006 | 48 | 143 | 0.0 | 0.0 | 0.00 | 0.00 | 0.00 | 84 | 1005.6 |
| 20260506032506 | 48 | 143 | 0.0 | 2.0 | 0.00 | 0.00 | 0.00 | 86 | 1005.7 |
| 20260506031008 | 47 | 144 | 0.0 | 2.0 | 0.00 | 0.00 | 0.00 | 87 | 1006.0 |
| 20260506025506 | 47 | 143 | 0.0 | 2.0 | 0.00 | 0.00 | 0.00 | 88 | 1006.2 |
| 20260506024005 | 46 | 143 | 0.0 | 1.0 | 0.00 | 0.00 | 0.00 | 88 | 1006.1 |
| 20260506022507 | 46 | 143 | 0.0 | 2.0 | 0.00 | 0.00 | 0.00 | 87 | 1006.0 |
| 20260506021005 | 46 | 143 | 0.0 | 0.0 | 0.00 | 0.00 | 0.00 | 87 | 1006.0 |
| 20260506015505 | 46 | 143 | 0.0 | 0.0 | 0.00 | 0.00 | 0.00 | 87 | 1006.2 |
| 20260506014006 | 46 | 143 | 0.0 | 0.0 | 0.00 | 0.00 | 0.00 | 86 | 1006.4 |
| 20260506012505 | 47 | 143 | 0.0 | 0.0 | 0.00 | 0.00 | 0.00 | 86 | 1006.9 |
| 20260506011004 | 47 | 144 | 0.0 | 2.0 | 0.00 | 0.00 | 0.00 | 85 | 1006.9 |
| 20260506005504 | 47 | 143 | 0.0 | 0.0 | 0.00 | 0.00 | 0.00 | 85 | 1006.7 |
| 20260506004004 | 48 | 143 | 0.0 | 0.0 | 0.00 | 0.00 | 0.00 | 85 | 1006.6 |
| 20260506002504 | 49 | 143 | 0.0 | 0.0 | 0.00 | 0.00 | 0.00 | 83 | 1006.9 |
| 20260506001004 | 49 | 143 | 0.0 | 0.0 | 0.00 | 0.00 | 0.00 | 83 | 1007.1 |
| 20260505235504 | 50 | 143 | 0.0 | 0.0 | 0.00 | 0.00 | 0.00 | 83 | 1007.2 |
| 20260505234008 | 50 | 143 | 0.0 | 0.0 | 0.00 | 0.00 | 0.00 | 82 | 1007.3 |
| 20260505232508 | 50 | 143 | 0.0 | 2.0 | 0.00 | 0.00 | 0.00 | 82 | 1007.6 |
| 20260505231008 | 51 | 144 | 0.0 | 0.0 | 0.00 | 0.00 | 0.00 | 82 | 1007.7 |
| 20260505225509 | 51 | 144 | 0.0 | 2.0 | 0.00 | 0.00 | 0.00 | 82 | 1007.6 |
| 20260505224008 | 51 | 154 | 0.0 | 2.0 | 0.00 | 0.00 | 0.00 | 82 | 1007.6 |
| 20260505222509 | 51 | 154 | 0.0 | 3.0 | 0.00 | 0.00 | 0.00 | 82 | 1007.6 |
| 20260505221008 | 51 | 150 | 0.0 | 2.0 | 0.00 | 0.00 | 0.00 | 83 | 1007.5 |
| 20260505215507 | 51 | 160 | 0.0 | 2.0 | 0.00 | 0.16 | 0.16 | 83 | 1008.5 |
| 20260505214009 | 52 | 160 | 0.0 | 1.0 | 0.00 | 0.16 | 0.16 | 83 | 1008.6 |
| 20260505212506 | 52 | 160 | 0.0 | 0.0 | 0.00 | 0.16 | 0.16 | 83 | 1008.7 |
| 20260505211007 | 52 | 160 | 0.0 | 2.0 | 0.00 | 0.16 | 0.16 | 84 | 1008.7 |
| 20260505205508 | 51 | 156 | 1.0 | 3.0 | 0.00 | 0.16 | 0.16 | 84 | 1008.5 |
| 20260505204006 | 51 | 155 | 0.0 | 1.0 | 0.00 | 0.16 | 0.16 | 84 | 1008.4 |
| 20260505202506 | 51 | 155 | 0.0 | 1.0 | 0.00 | 0.16 | 0.16 | 84 | 1008.3 |
| 20260505201007 | 52 | 155 | 0.0 | 0.0 | 0.00 | 0.16 | 0.16 | 83 | 1008.0 |
| 20260505195505 | 53 | 155 | 0.0 | 0.0 | 0.00 | 0.16 | 0.16 | 83 | 1007.8 |
| 20260505194005 | 53 | 155 | 0.0 | 0.0 | 0.00 | 0.16 | 0.16 | 83 | 1007.6 |
| 20260505192505 | 53 | 155 | 1.0 | 3.0 | 0.00 | 0.16 | 0.16 | 83 | 1007.6 |
| 20260505191005 | 53 | 169 | 1.0 | 4.0 | 0.00 | 0.16 | 0.16 | 83 | 1007.5 |
| 20260505185506 | 53 | 169 | 0.0 | 2.0 | 0.01 | 0.16 | 0.16 | 84 | 1007.2 |
| 20260505184004 | 53 | 169 | 0.0 | 2.0 | 0.01 | 0.16 | 0.16 | 84 | 1007.0 |
| 20260505182504 | 54 | 169 | 0.0 | 2.0 | 0.01 | 0.16 | 0.16 | 84 | 1006.9 |
| 20260505181004 | 54 | 169 | 0.0 | 4.0 | 0.01 | 0.16 | 0.16 | 85 | 1006.7 |
| 20260505175504 | 54 | 169 | 0.0 | 2.0 | 0.00 | 0.15 | 0.15 | 85 | 1007.0 |
| 20260505174004 | 54 | 169 | 0.0 | 2.0 | 0.01 | 0.15 | 0.15 | 84 | 1006.9 |
| 20260505172509 | 55 | 155 | 2.0 | 2.0 | 0.06 | 0.15 | 0.15 | 83 | 1007.1 |
| 20260505171009 | 56 | 155 | 1.0 | 3.0 | 0.06 | 0.15 | 0.15 | 82 | 1007.0 |
| 20260505165508 | 57 | 186 | 0.0 | 5.0 | 0.06 | 0.15 | 0.15 | 78 | 1006.9 |
| 20260505164008 | 59 | 164 | 2.0 | 7.0 | 0.06 | 0.14 | 0.14 | 72 | 1007.0 |
| 20260505162508 | 62 | 292 | 0.0 | 2.0 | 0.00 | 0.09 | 0.09 | 70 | 1006.7 |
| 20260505161008 | 63 | 211 | 0.0 | 2.0 | 0.00 | 0.09 | 0.09 | 69 | 1006.6 |
| 20260505152508 | 62 | 316 | 0.0 | 3.0 | 0.00 | 0.09 | 0.09 | 73 | 1006.7 |
| 20260505151008 | 60 | 315 | 0.0 | 2.0 | 0.00 | 0.09 | 0.09 | 76 | 1006.7 |
| 20260505124006 | 58 | 161 | 0.0 | 0.0 | 0.02 | 0.06 | 0.06 | 82 | 1007.8 |
| 20260505122507 | 58 | 160 | 0.0 | 2.0 | 0.03 | 0.06 | 0.06 | 82 | 1008.0 |
| 20260505121005 | 58 | 161 | 0.0 | 2.0 | 0.03 | 0.06 | 0.06 | 81 | 1007.9 |
| 20260505115507 | 58 | 160 | 0.0 | 2.0 | 0.03 | 0.05 | 0.05 | 80 | 1007.9 |
| 20260505114006 | 59 | 185 | 0.0 | 3.0 | 0.04 | 0.04 | 0.04 | 80 | 1007.9 |
| 20260505112511 | 59 | 187 | 1.0 | 3.0 | 0.03 | 0.03 | 0.03 | 80 | 1007.9 |
| 20260505111009 | 60 | 193 | 1.0 | 4.0 | 0.02 | 0.02 | 0.02 | 79 | 1007.9 |
| 20260505101010 | 64 | 192 | 0.0 | 1.0 | 0.00 | 0.00 | 0.00 | 61 | 1007.9 |
| 20260505095510 | 64 | 185 | 0.0 | 2.0 | 0.00 | 0.00 | 0.00 | 59 | 1007.9 |
| 20260505094008 | 65 | 298 | 0.0 | 2.0 | 0.00 | 0.00 | 0.00 | 59 | 1008.1 |
| 20260505092508 | 64 | 333 | 0.0 | 2.0 | 0.00 | 0.00 | 0.00 | 61 | 1008.1 |
| 20260505091008 | 64 | 331 | 1.0 | 2.0 | 0.00 | 0.00 | 0.00 | 61 | 1008.2 |
| 20260505085508 | 64 | 240 | 0.0 | 2.0 | 0.00 | 0.00 | 0.00 | 61 | 1008.3 |
| 20260505084008 | 63 | 297 | 0.0 | 3.0 | 0.00 | 0.00 | 0.00 | 62 | 1008.3 |
| 20260505082508 | 61 | 275 | 1.0 | 2.0 | 0.00 | 0.00 | 0.00 | 66 | 1008.4 |
| 20260505081007 | 60 | 261 | 0.0 | 2.0 | 0.00 | 0.00 | 0.00 | 65 | 1008.3 |
| 20260505075507 | 60 | 261 | 0.0 | 2.0 | 0.00 | 0.00 | 0.00 | 67 | 1008.4 |
| 20260505074007 | 60 | 261 | 0.0 | 2.0 | 0.00 | 0.00 | 0.00 | 66 | 1008.6 |
| 20260505072509 | 58 | 159 | 0.0 | 2.0 | 0.00 | 0.00 | 0.00 | 73 | 1008.6 |
| 20260505071007 | 57 | 159 | 0.0 | 2.0 | 0.00 | 0.00 | 0.00 | 76 | 1008.6 |